| time (UTC) | temp F | wind direction | speed MPH | gust MPH | rain 1hr in | rain 24hr in | rain mn in | humidity % | barometer mb |
| 20260507095113 | 46 | 90 | 0.0 | 0.0 | 0.00 | 0.00 | 0.00 | 93 | 1002.7 |
| 20260507094612 | 46 | 90 | 0.0 | 0.0 | 0.00 | 0.00 | 0.00 | 93 | 1002.7 |
| 20260507094112 | 46 | 112 | 0.0 | 0.0 | 0.00 | 0.00 | 0.00 | 93 | 1003.0 |
| 20260507093114 | 46 | 112 | 0.0 | 0.0 | 0.00 | 0.00 | 0.00 | 93 | 1002.7 |
| 20260507090613 | 47 | 337 | 0.0 | 0.0 | 0.00 | 0.00 | 0.00 | 93 | 1002.7 |
| 20260507090113 | 47 | 45 | 0.0 | 0.0 | 0.00 | 0.00 | 0.00 | 93 | 1002.7 |
| 20260507085616 | 47 | 270 | 0.0 | 0.0 | 0.00 | 0.00 | 0.00 | 93 | 1002.7 |
| 20260507084112 | 48 | 247 | 0.0 | 0.0 | 0.00 | 0.00 | 0.00 | 93 | 1002.7 |
| 20260507083613 | 48 | 157 | 0.0 | 0.0 | 0.00 | 0.00 | 0.00 | 93 | 1002.7 |
| 20260507083112 | 48 | 157 | 0.0 | 0.0 | 0.00 | 0.00 | 0.00 | 93 | 1002.3 |
| 20260507082613 | 48 | 157 | 0.0 | 0.0 | 0.00 | 0.00 | 0.00 | 93 | 1002.0 |
| 20260507082113 | 48 | 112 | 0.0 | 0.0 | 0.00 | 0.00 | 0.00 | 93 | 1002.3 |
| 20260507081115 | 48 | 135 | 0.0 | 0.0 | 0.00 | 0.00 | 0.00 | 93 | 1002.7 |
| 20260507075612 | 48 | 67 | 0.0 | 0.0 | 0.00 | 0.00 | 0.00 | 93 | 1002.3 |
| 20260507075113 | 49 | 67 | 0.0 | 0.0 | 0.00 | 0.00 | 0.00 | 93 | 1002.0 |
| 20260507074612 | 49 | 67 | 0.0 | 0.0 | 0.00 | 0.00 | 0.00 | 92 | 1002.3 |
| 20260507073612 | 49 | 67 | 0.0 | 0.0 | 0.00 | 0.00 | 0.00 | 92 | 1002.3 |
| 20260507072112 | 49 | 112 | 0.0 | 0.0 | 0.00 | 0.00 | 0.00 | 92 | 1002.0 |
| 20260507071616 | 49 | 135 | 0.0 | 0.0 | 0.00 | 0.00 | 0.00 | 92 | 1002.0 |
| 20260507071113 | 49 | 135 | 0.0 | 0.0 | 0.00 | 0.00 | 0.00 | 92 | 1001.6 |
| 20260507070617 | 49 | 135 | 0.0 | 0.0 | 0.00 | 0.00 | 0.00 | 92 | 1001.6 |
| 20260507070116 | 49 | 135 | 0.0 | 0.0 | 0.00 | 0.00 | 0.00 | 92 | 1002.0 |
| 20260507065113 | 49 | 90 | 0.0 | 0.0 | 0.00 | 0.00 | 0.00 | 92 | 1001.6 |
| 20260507064612 | 50 | 90 | 0.0 | 0.0 | 0.00 | 0.00 | 0.00 | 92 | 1001.6 |
| 20260507063115 | 50 | 135 | 0.0 | 0.0 | 0.00 | 0.00 | 0.00 | 93 | 1001.6 |
| 20260507062113 | 50 | 225 | 0.0 | 0.0 | 0.00 | 0.00 | 0.00 | 93 | 1001.3 |
| 20260507061616 | 50 | 22 | 0.0 | 0.0 | 0.00 | 0.00 | 0.00 | 93 | 1001.6 |
| 20260507060613 | 50 | 157 | 0.0 | 0.0 | 0.00 | 0.00 | 0.00 | 93 | 1001.6 |
| 20260507060115 | 50 | 225 | 0.0 | 0.0 | 0.00 | 0.00 | 0.00 | 93 | 1001.3 |
| 20260507053616 | 50 | 112 | 0.0 | 0.0 | 0.00 | 0.00 | 0.00 | 93 | 1001.3 |
| 20260507052113 | 50 | 67 | 0.0 | 0.0 | 0.00 | 0.00 | 0.00 | 93 | 1001.3 |
| 20260507044613 | 50 | 90 | 0.0 | 0.0 | 0.00 | 0.00 | 0.00 | 93 | 1001.0 |
| 20260507043113 | 50 | 180 | 0.0 | 0.0 | 0.00 | 0.00 | 0.00 | 93 | 1001.3 |
| 20260507041613 | 49 | 157 | 0.0 | 0.0 | 0.00 | 0.00 | 0.00 | 92 | 1001.0 |
| 20260507041113 | 49 | 225 | 0.0 | 2.0 | 0.00 | 0.00 | 0.00 | 92 | 1000.6 |
| 20260507040613 | 49 | 180 | 1.0 | 2.0 | 0.00 | 0.00 | 0.00 | 92 | 1000.6 |
| 20260507040118 | 49 | 180 | 2.0 | 3.0 | 0.00 | 0.00 | 0.00 | 92 | 1000.6 |
| 20260507035613 | 49 | 225 | 3.0 | 3.0 | 0.00 | 0.00 | 0.00 | 92 | 1000.6 |
| 20260507035117 | 49 | 45 | 0.0 | 0.0 | 0.00 | 0.00 | 0.00 | 92 | 1000.6 |
| 20260507034113 | 49 | 225 | 0.0 | 1.0 | 0.00 | 0.00 | 0.00 | 92 | 1000.6 |
| 20260507033613 | 49 | 202 | 0.0 | 0.0 | 0.00 | 0.00 | 0.00 | 92 | 1000.6 |
| 20260507033113 | 49 | 180 | 0.0 | 0.0 | 0.00 | 0.00 | 0.00 | 92 | 1000.6 |
| 20260507032114 | 49 | 225 | 0.0 | 0.0 | 0.00 | 0.00 | 0.00 | 92 | 1000.6 |
| 20260507031615 | 49 | 247 | 0.0 | 4.0 | 0.00 | 0.00 | 0.00 | 92 | 1000.6 |
| 20260507031113 | 49 | 180 | 4.0 | 4.0 | 0.00 | 0.00 | 0.00 | 92 | 1000.6 |
| 20260507030616 | 50 | 247 | 0.0 | 0.0 | 0.00 | 0.00 | 0.00 | 92 | 1000.6 |
| 20260507030114 | 50 | 180 | 0.0 | 2.0 | 0.00 | 0.00 | 0.00 | 92 | 1000.6 |
| 20260507025613 | 50 | 202 | 2.0 | 3.0 | 0.00 | 0.00 | 0.00 | 92 | 1000.6 |
| 20260507023613 | 50 | 225 | 0.0 | 4.0 | 0.00 | 0.00 | 0.00 | 92 | 1001.0 |
| 20260507023114 | 50 | 135 | 4.0 | 4.0 | 0.00 | 0.00 | 0.00 | 93 | 1001.0 |
| 20260507022115 | 50 | 247 | 0.0 | 1.0 | 0.00 | 0.00 | 0.00 | 93 | 1001.0 |
| 20260507021613 | 50 | 202 | 1.0 | 1.0 | 0.00 | 0.00 | 0.00 | 93 | 1001.3 |
| 20260507015120 | 50 | 67 | 0.0 | 0.0 | 0.00 | 0.00 | 0.00 | 93 | 1001.6 |
| 20260507012613 | 50 | 247 | 0.0 | 5.0 | 0.00 | 0.00 | 0.00 | 92 | 1001.6 |
| 20260507012113 | 50 | 292 | 5.0 | 5.0 | 0.00 | 0.00 | 0.00 | 92 | 1001.6 |
| 20260507011613 | 50 | 337 | 0.0 | 1.0 | 0.00 | 0.00 | 0.00 | 92 | 1001.6 |
| 20260507011113 | 50 | 225 | 1.0 | 3.0 | 0.00 | 0.00 | 0.00 | 92 | 1001.6 |
| 20260507010613 | 50 | 225 | 3.0 | 3.0 | 0.00 | 0.00 | 0.00 | 92 | 1001.6 |
| 20260507010113 | 50 | 247 | 0.0 | 0.0 | 0.00 | 0.00 | 0.00 | 92 | 1001.6 |
| 20260507005613 | 50 | 270 | 0.0 | 2.0 | 0.00 | 0.00 | 0.00 | 92 | 1001.6 |
| 20260507005113 | 50 | 157 | 0.0 | 3.0 | 0.00 | 0.00 | 0.00 | 92 | 1001.6 |
| 20260507004613 | 50 | 225 | 3.0 | 3.0 | 0.00 | 0.00 | 0.00 | 92 | 1001.6 |
| 20260507004113 | 51 | 225 | 0.0 | 1.0 | 0.00 | 0.00 | 0.00 | 92 | 1001.6 |
| 20260507003613 | 51 | 292 | 1.0 | 1.0 | 0.00 | 0.00 | 0.00 | 92 | 1001.6 |
| 20260507003113 | 51 | 22 | 0.0 | 2.0 | 0.00 | 0.00 | 0.00 | 92 | 1002.0 |
| 20260507002613 | 51 | 112 | 0.0 | 0.0 | 0.00 | 0.00 | 0.00 | 92 | 1001.6 |
| 20260507001613 | 51 | 315 | 0.0 | 0.0 | 0.00 | 0.00 | 0.00 | 92 | 1001.6 |
| 20260507000613 | 51 | 270 | 0.0 | 0.0 | 0.00 | 0.00 | 0.00 | 92 | 1001.6 |